When you browse on this site, cookies collect data to enhance your experience and personalize the content and advertising you see.
Visit our Privacy Policy to learn more. By continuing to use the site, you agree to this use of cookies and data.
  • In United Kingdom
  • List of Countries
  • For 7 days
  • Water Temperature
  • Satellite Maps
  • Weather Map
  • Weather Widgets
  • user-avatar
    Login

    Hourly Weather Rio Branco

    Today, 22 February, Friday

    Time Temperature Precipitation Wind Pressure Humidity
    00:00 +26°C° 0 mm 1 mps 746 mmHg 94%
    01:00 +25°C° 0 mm 1 mps 746 mmHg 94%
    02:00 +26°C° 0.1 mm 1 mps 745 mmHg 94%
    03:00 +26°C° 0.1 mm 1 mps 745 mmHg 95%
    04:00 +24°C° 0.1 mm 0 mps 745 mmHg 95%
    05:00 +24°C° 0.1 mm 0 mps 746 mmHg 95%
    06:00 +24°C° 0.1 mm 0 mps 746 mmHg 95%
    07:00 +24°C° 0.1 mm 0 mps 747 mmHg 95%
    08:00 +25°C° 0.1 mm 0 mps 747 mmHg 94%
    09:00 +25°C° 0.1 mm 0 mps 747 mmHg 92%
    10:00 +26°C° 0.1 mm 0 mps 747 mmHg 90%
    11:00 +30°C° 0.2 mm 1 mps 746 mmHg 80%
    12:00 +32°C° 0.2 mm 1 mps 745 mmHg 70%
    13:00 +35°C° 0.2 mm 1 mps 745 mmHg 60%
    14:00 +34°C° 0.1 mm 1 mps 744 mmHg 60%
    15:00 +32°C° 0.1 mm 0 mps 743 mmHg 61%
    16:00 +32°C° 0.1 mm 0 mps 743 mmHg 62%
    17:00 +30°C° 0.1 mm 0 mps 743 mmHg 71%
    18:00 +30°C° 0.1 mm 1 mps 743 mmHg 80%
    19:00 +28°C° 0.1 mm 1 mps 744 mmHg 89%
    20:00 +28°C° 0.1 mm 1 mps 744 mmHg 90%
    21:00 +27°C° 0.1 mm 1 mps 745 mmHg 91%
    22:00 +27°C° 0.1 mm 1 mps 746 mmHg 91%
    23:00 +27°C° 0.3 mm 1 mps 746 mmHg 92%

    Tomorrow, 23 February, Saturday

    Time Temperature Precipitation Wind Pressure Humidity
    00:00 +26°C° 0.3 mm 1 mps 745 mmHg 92%
    01:00 +24°C° 0.3 mm 0 mps 745 mmHg 92%
    02:00 +24°C° 0.5 mm 0 mps 745 mmHg 93%
    03:00 +26°C° 0.5 mm 1 mps 744 mmHg 94%
    04:00 +25°C° 0.5 mm 1 mps 744 mmHg 96%
    05:00 +26°C° 0 mm 1 mps 745 mmHg 95%
    06:00 +26°C° 0 mm 1 mps 745 mmHg 94%
    07:00 +27°C° 0 mm 1 mps 746 mmHg 93%
    08:00 +28°C° 1.1 mm 1 mps 746 mmHg 92%
    09:00 +29°C° 1.1 mm 1 mps 746 mmHg 91%
    10:00 +30°C° 1.1 mm 1 mps 746 mmHg 90%
    11:00 +31°C° 1.4 mm 1 mps 745 mmHg 85%
    12:00 +31°C° 1.4 mm 1 mps 745 mmHg 81%
    13:00 +32°C° 1.4 mm 1 mps 744 mmHg 76%
    14:00 +32°C° 0.2 mm 1 mps 743 mmHg 75%
    15:00 +32°C° 0.2 mm 1 mps 742 mmHg 75%
    16:00 +30°C° 0.2 mm 0 mps 742 mmHg 74%
    17:00 +28°C° 0.3 mm 0 mps 742 mmHg 79%
    18:00 +27°C° 0.3 mm 0 mps 743 mmHg 84%
    19:00 +25°C° 0.3 mm 0 mps 743 mmHg 89%
    20:00 +27°C° 0 mm 1 mps 744 mmHg 91%
    21:00 +27°C° 0 mm 1 mps 744 mmHg 92%
    22:00 +26°C° 0 mm 1 mps 745 mmHg 94%
    23:00 +26°C° 0.2 mm 1 mps 745 mmHg 94%

    Day after tomorrow, 24 February, Sunday

    Time Temperature Precipitation Wind Pressure Humidity
    00:00 +26°C° 0.2 mm 1 mps 744 mmHg 95%
    01:00 +26°C° 0.2 mm 1 mps 744 mmHg 96%
    02:00 +25°C° 0 mm 1 mps 743 mmHg 96%
    03:00 +25°C° 0 mm 1 mps 743 mmHg 97%
    04:00 +25°C° 0 mm 1 mps 743 mmHg 97%
    05:00 +26°C° 0 mm 1 mps 744 mmHg 96%
    06:00 +26°C° 0 mm 1 mps 744 mmHg 94%
    07:00 +27°C° 0 mm 1 mps 745 mmHg 93%
    08:00 +28°C° 0.2 mm 2 mps 745 mmHg 87%
    09:00 +29°C° 0.2 mm 2 mps 745 mmHg 82%
    10:00 +30°C° 0.2 mm 2 mps 745 mmHg 77%
    11:00 +31°C° 1 mm 2 mps 745 mmHg 77%
    12:00 +31°C° 1 mm 2 mps 744 mmHg 76%
    13:00 +32°C° 1 mm 2 mps 743 mmHg 76%
    14:00 +31°C° 1 mm 2 mps 742 mmHg 80%
    15:00 +30°C° 1 mm 2 mps 741 mmHg 84%
    16:00 +30°C° 1 mm 1 mps 740 mmHg 88%
    17:00 +29°C° 0.1 mm 1 mps 741 mmHg 91%
    18:00 +28°C° 0.1 mm 1 mps 742 mmHg 94%
    19:00 +27°C° 0.1 mm 1 mps 742 mmHg 96%
    20:00 +26°C° 0 mm 1 mps 743 mmHg 97%
    21:00 +26°C° 0 mm 1 mps 743 mmHg 97%
    22:00 +26°C° 0 mm 1 mps 744 mmHg 97%
    23:00 +26°C° 0.1 mm 1 mps 743 mmHg 97%

    25 February, Monday

    Time Temperature Precipitation Wind Pressure Humidity
    00:00 +25°C° 0.1 mm 1 mps 743 mmHg 97%
    01:00 +25°C° 0.1 mm 1 mps 743 mmHg 98%
    02:00 +25°C° 0.9 mm 1 mps 743 mmHg 98%
    03:00 +25°C° 0.9 mm 1 mps 743 mmHg 98%
    04:00 +25°C° 0.9 mm 1 mps 743 mmHg 99%
    05:00 +25°C° 0 mm 1 mps 743 mmHg 98%
    06:00 +25°C° 0 mm 1 mps 744 mmHg 97%
    07:00 +26°C° 0 mm 1 mps 745 mmHg 96%
    08:00 +27°C° 0.2 mm 1 mps 745 mmHg 91%
    09:00 +29°C° 0.2 mm 1 mps 745 mmHg 85%
    10:00 +30°C° 0.2 mm 2 mps 745 mmHg 80%
    11:00 +30°C° 1.7 mm 2 mps 744 mmHg 83%
    12:00 +30°C° 1.7 mm 2 mps 743 mmHg 86%
    13:00 +30°C° 1.7 mm 2 mps 743 mmHg 89%
    14:00 +30°C° 0.7 mm 2 mps 742 mmHg 89%
    15:00 +29°C° 0.7 mm 1 mps 741 mmHg 90%
    16:00 +29°C° 0.7 mm 1 mps 741 mmHg 90%
    17:00 +28°C° 0.7 mm 1 mps 741 mmHg 92%
    18:00 +27°C° 0.7 mm 1 mps 742 mmHg 95%
    19:00 +26°C° 0.7 mm 1 mps 743 mmHg 97%
    20:00 +26°C° 0.1 mm 1 mps 743 mmHg 97%
    21:00 +26°C° 0.1 mm 1 mps 744 mmHg 97%
    22:00 +26°C° 0.1 mm 1 mps 744 mmHg 97%
    23:00 +25°C° 0.1 mm 1 mps 744 mmHg 97%

    26 February, Tuesday

    Time Temperature Precipitation Wind Pressure Humidity
    00:00 +25°C° 0.1 mm 1 mps 744 mmHg 97%
    01:00 +25°C° 0.1 mm 1 mps 743 mmHg 97%
    02:00 +25°C° 0.1 mm 1 mps 743 mmHg 97%
    03:00 +25°C° 0.1 mm 1 mps 743 mmHg 97%
    04:00 +24°C° 0.1 mm 1 mps 743 mmHg 98%
    05:00 +25°C° 0 mm 1 mps 744 mmHg 97%
    06:00 +25°C° 0 mm 1 mps 745 mmHg 97%
    07:00 +25°C° 0 mm 1 mps 745 mmHg 97%
    08:00 +26°C° 0.9 mm 1 mps 745 mmHg 95%
    09:00 +27°C° 0.9 mm 2 mps 746 mmHg 94%
    10:00 +28°C° 0.9 mm 2 mps 746 mmHg 92%
    11:00 +28°C° 0.9 mm 2 mps 745 mmHg 91%
    12:00 +29°C° 0.9 mm 1 mps 745 mmHg 89%
    13:00 +29°C° 0.9 mm 1 mps 744 mmHg 88%
    14:00 +29°C° 1.8 mm 1 mps 744 mmHg 90%
    15:00 +28°C° 1.8 mm 1 mps 743 mmHg 93%
    16:00 +27°C° 1.8 mm 1 mps 743 mmHg 96%
    17:00 +25°C° 1.4 mm 0 mps 743 mmHg 96%
    18:00 +24°C° 1.4 mm 0 mps 744 mmHg 97%
    19:00 +24°C° 1.4 mm 0 mps 744 mmHg 97%
    20:00 +24°C° 0.4 mm 0 mps 745 mmHg 98%
    21:00 +24°C° 0.4 mm 0 mps 745 mmHg 98%
    22:00 +23°C° 0.4 mm 0 mps 746 mmHg 98%
    23:00 +23°C° 0.2 mm 0 mps 746 mmHg 98%

    27 February, Wednesday

    Time Temperature Precipitation Wind Pressure Humidity
    00:00 +23°C° 0.2 mm 0 mps 745 mmHg 99%
    01:00 +23°C° 0.2 mm 0 mps 745 mmHg 99%
    02:00 +23°C° 0.1 mm 0 mps 745 mmHg 98%
    03:00 +23°C° 0.1 mm 0 mps 745 mmHg 98%
    04:00 +23°C° 0.1 mm 0 mps 745 mmHg 98%
    05:00 +23°C° 0 mm 0 mps 745 mmHg 98%
    06:00 +23°C° 0 mm 0 mps 746 mmHg 97%
    07:00 +23°C° 0 mm 0 mps 746 mmHg 97%
    08:00 +27°C° 0.6 mm 1 mps 746 mmHg 93%
    09:00 +28°C° 0.6 mm 1 mps 746 mmHg 89%
    10:00 +29°C° 0.6 mm 1 mps 746 mmHg 85%
    11:00 +30°C° 1 mm 1 mps 746 mmHg 82%
    12:00 +31°C° 1 mm 1 mps 745 mmHg 79%
    13:00 +31°C° 1 mm 1 mps 744 mmHg 77%
    14:00 +31°C° 1.9 mm 1 mps 744 mmHg 82%
    15:00 +30°C° 1.9 mm 1 mps 743 mmHg 88%
    16:00 +29°C° 1.9 mm 1 mps 743 mmHg 93%
    17:00 +28°C° 1.1 mm 1 mps 743 mmHg 94%
    18:00 +27°C° 1.1 mm 1 mps 744 mmHg 96%
    19:00 +26°C° 1.1 mm 1 mps 744 mmHg 97%
    20:00 +26°C° 0.9 mm 1 mps 745 mmHg 97%
    21:00 +25°C° 0.9 mm 1 mps 746 mmHg 98%
    22:00 +25°C° 0.9 mm 2 mps 746 mmHg 98%
    23:00 +25°C° 0.3 mm 1 mps 746 mmHg 98%
    Show more